FENGYUN 1C DEB

Satellite information

Favourite Embed

Satellite Type and Status

DEBRISIN ORBIT

Key statistics

Satellite FENGYUN 1C DEB at a glance.

Uptime

9616

Days in orbit

Revolutions

≈ 14.5

Per day

Orbit

SSO

Sun Synchronous Orbit

Inclination

98.8

Latest

Satellite identification and parameters

Extended collection of information and parameters for FENGYUN 1C DEB.

Object identification

Identified? True

Debris? True

Object name: FENGYUN 1C DEB

International designator: 1999-025BRX

Object number (NORAD): 31367

Object ID (CCSDS): 31367

Country: PEOPLES REPUBLIC OF CHINA (PRC)

Current information (Y/N): Y

RCS size: SMALL

Orbital parameters

Period: 99.522 minutes

Inclination: 98.7531 deg

SMA: 7113.862 km

Apoapsis: 806.165 km

Periapsis: 665.289 km

RAAN: 138.129 deg

Eccentricy: 0.00990151

Argument of periapsis: 316.1115 deg

Mean anomaly: 199.5022 deg

Mean motion: 14.46920235 rev/day

Mean motion (dot): 0.00003274 rev/day2

B* drag term: 0.00086138327 1/REarth

Two-line elements (TLE)

Creation date: Sept. 4, 2025, 10:13 a.m.

Reference frame: TEME

Reference center: EARTH

Epoch: Sept. 4, 2025, 4:45 a.m. UTC

TLE line 0: 0 FENGYUN 1C DEB

TLE line 1: 1 31367U 99025BRX 25247.19837821 .00003274 00000-0 86138-3 0 9999

TLE line 2: 2 31367 98.7531 138.1290 0099015 316.1115 199.5022 14.46920235970269

Live tracking on map

Real-time ground track for satellite FENGYUN 1C DEB.

In-orbit conjunctions

A list of the most updated potential collisions computed for object FENGYUN 1C DEB.

Target Orbit TCA Probability of collision Miss distance Type
FENGYUN 1C DEB SSO 2025-08-05 01:26:08 0.0001373906 225.0 (m) DEBRIS
FENGYUN 1C DEB SSO 2025-07-09 19:19:32 0.0001284082 80.0 (m) DEBRIS
CZ-6A DEB LEO 2024-11-14 07:20:51 0.0001110821 905.0 (m) DEBRIS
CZ-2D R/B SSO 2024-07-12 03:40:19 0.0001484002 746.0 (m) ROCKET BODY

Associated space launch

Chinese polar orbiting meteorological satellite

FENGYUN 1C DEB was lifted into orbit during the mission ‘Long March 4B | Feng Yun 1C’, on board a Long March 4B space rocket.

The launch took place on May 10, 1999, 1:33 a.m. from Launch Complex 7.

For more information about the launch, click the button.

Launch to space Long March 4B | Feng Yun 1C
Long March 4B | Feng Yun 1C

Agency: N/A

Status: Launch Successful

Launch date: May 10, 1999, 1:33 a.m. UTC

Rocket: Long March 4B

Launch pad: Launch Complex 7

Location: Taiyuan Satellite Launch Center, People's Republic of China

...

Latest news about this satellite

There are no fresh news available about this satellite. Check back as we update our databases every day.


Newsletter sign-up

Weekly statistics, charts and insights to help you stay on top of the space industry.